TimeCST,TemperatureF,Dew PointF,Humidity,Sea Level PressureIn,VisibilityMPH,Wind Direction,Wind SpeedMPH,Gust SpeedMPH,PrecipitationIn,Events,Conditions,WindDirDegrees,DateUTC
12:41 AM,68.0,68.0,100,29.98,7.0,ESE,3.5,-,N/A,,Partly Cloudy,110,2014-02-24 06:41:00
1:51 AM,68.0,68.0,100,29.97,7.0,Calm,Calm,-,N/A,,Partly Cloudy,0,2014-02-24 07:51:00
2:42 AM,66.2,66.2,100,29.99,7.0,Calm,Calm,-,N/A,,Partly Cloudy,0,2014-02-24 08:42:00
3:47 AM,66.2,66.2,100,29.97,7.0,Calm,Calm,-,N/A,,Partly Cloudy,0,2014-02-24 09:47:00
4:44 AM,66.2,66.2,100,29.97,7.0,Calm,Calm,-,N/A,,Partly Cloudy,0,2014-02-24 10:44:00
5:44 AM,68.0,68.0,100,29.97,7.0,Calm,Calm,-,N/A,,Partly Cloudy,0,2014-02-24 11:44:00
6:40 AM,68.0,68.0,100,30.01,8.0,ESE,3.5,-,N/A,,Scattered Clouds,120,2014-02-24 12:40:00
7:43 AM,75.2,71.6,89,30.02,8.0,ESE,6.9,-,N/A,,Scattered Clouds,110,2014-02-24 13:43:00
8:40 AM,77.0,71.6,83,30.07,8.0,ESE,13.8,-,N/A,,Scattered Clouds,110,2014-02-24 14:40:00
9:40 AM,80.6,71.6,74,30.05,8.0,East,13.8,-,N/A,,Scattered Clouds,100,2014-02-24 15:40:00
10:40 AM,80.6,71.6,74,30.05,8.0,ESE,16.1,-,N/A,,Mostly Cloudy,110,2014-02-24 16:40:00
11:40 AM,82.4,69.8,66,30.01,8.0,ESE,15.0,-,N/A,,Mostly Cloudy,110,2014-02-24 17:40:00
12:40 PM,82.4,71.6,70,30.01,8.0,ESE,15.0,-,N/A,,Mostly Cloudy,110,2014-02-24 18:40:00
1:40 PM,80.6,69.8,70,29.99,8.0,SE,16.1,-,N/A,,Mostly Cloudy,130,2014-02-24 19:40:00
2:53 PM,82.4,71.6,70,30.01,8.0,SE,8.1,-,N/A,,Scattered Clouds,140,2014-02-24 20:53:00
3:52 PM,80.6,69.8,70,29.98,8.0,ESE,10.4,-,N/A,,Scattered Clouds,110,2014-02-24 21:52:00
4:53 PM,78.8,69.8,74,29.99,8.0,ESE,10.4,-,N/A,,Scattered Clouds,110,2014-02-24 22:53:00
5:50 PM,75.2,69.8,83,29.98,8.0,SE,5.8,-,N/A,,Partly Cloudy,130,2014-02-24 23:50:00
6:52 PM,71.6,69.8,94,30.00,7.0,ESE,4.6,-,N/A,,Partly Cloudy,120,2014-02-25 00:52:00
7:55 PM,69.8,69.8,100,30.02,7.0,SE,5.8,-,N/A,,Partly Cloudy,130,2014-02-25 01:55:00
8:46 PM,68.0,68.0,100,30.06,7.0,ESE,3.5,-,N/A,,Partly Cloudy,120,2014-02-25 02:46:00
9:48 PM,68.0,68.0,100,30.04,7.0,Calm,Calm,-,N/A,,Partly Cloudy,0,2014-02-25 03:48:00
10:47 PM,66.2,66.2,100,30.05,7.0,Calm,Calm,-,N/A,,Partly Cloudy,0,2014-02-25 04:47:00
11:46 PM,66.2,66.2,100,30.02,7.0,Calm,Calm,-,N/A,,Partly Cloudy,0,2014-02-25 05:46:00